Location: Newark
(25.5428°S, 54.5819°W)
Time: 06:10:17
(UTC+00:00)

Envisat - Pass Details

Date: 29 July 2019
Orbit: 764 x 766 km, 98.1° (Epoch: 20 August)

Event Time Altitude Azimuth Distance (km) Brightness Sun altitude
Rises 09:34:01 0° 31° (NNE) 3,215 7.0 -10.3°
Reaches altitude 10° 09:36:25 10° 38° (NE) 2,297 6.4 -9.8°
Maximum altitude 09:41:07 39° 106° (ESE) 1,140 4.5 -8.8°
Drops below altitude 10° 09:45:51 10° 174° (S) 2,323 5.4 -7.8°
Sets 09:48:17 0° 181° (S) 3,256 6.1 -7.2°
